Погода в Перевозе

Россия / Нижегородская область     55°35′48″N   44°32′41″E
темп.,
°C
ветер,
м/с
пор.,
м/с
влажн.,
%
обл.,
%
осадки,
мм/ч
давл.,
гПа
погр.,
м
5 марта, пт
пт500:00−8сз2292100 0.0 99922
03:00−9ссз2293100 0.0 100021
06:00−8ссз2296100 0.1 100231
09:00−10сз249584 0.2 1004136
12:00−6зсз359161 0.0 1005379
15:00−4з468673 0.1 1007753
18:00−6зюз379680 0.2 1007167
21:00−9з479074 0.4 101094
6 марта, сб
сб600:00−10зсз499530 0.1 1011205
03:00−14зсз349658 0.1 101443
06:00−17з23880 0.0 101520
09:00−14зюз24890 0.0 1016120
12:00−9зюз35870 0.0 1016295
15:00−7зюз468912 0.0 1014522
18:00−10з239492 0.1 101428
21:00−11з229694 0.3 101424
7 марта, вс
вс700:00−14зюз229794 0.1 101321
03:00−16зюз229787 0.1 101220
06:00−16ююз33979 0.0 101127
09:00−12ююз5109327 0.0 1009274
12:00−7ююз7128698 0.0 1005652
15:00−5ююз8138499 0.0 1002981
18:00−6ю81592100 0.4 997952
21:00−5ю81592100 0.9 993911
8 марта, пн
пн800:00−6зюз71390100 0.7 991789
03:00−8зюз9178699 0.9 992818
06:00−10зюз81589100 0.1 993622
09:00−9юз7139199 0.1 994560
12:00−7зюз6108999 0.0 994640
15:00−5з5985100 0.1 995880
18:00−8з5119099 0.1 997405
21:00−9з5109394 0.1 999381
9 марта, вт
вт900:00−9зсз599496 0.1 1001322
03:00−11зсз499497 0.2 1004354
06:00−13зсз489496 0.1 1006259
09:00−13сз489287 0.1 1009434
12:00−11сз4687100 0.1 1011724
15:00−11сз5787100 0.2 1012813
18:00−14зсз3893100 0.1 1013229
21:00−18зсз3696100 0.1 1015121